Flag for Taiwan Weather past 2 weeks in Taichung, Taiwan

Now
90 °F

Passing clouds.


Feels Like: 98 °F
Forecast: 79 / 91 °F
Wind: 10 mph from Northwest

Location: Chiang Kai Shek

Current Time: Aug 1, 2015 at 4:49:55 PM

Latest Report: Aug 1, 2015 at 4:00 PM


Visibility: N/A

Pressure: 29.83 "Hg

Humidity: 59%

Dew point: 73 °F

Location of TaichungLocation

Historic Weather in Taichung — Graph

°F

Taichung temperature yesterday

Maximum temperature yesterday: 91 °F (at 11:30 AM)
Minimum temperature yesterday: 75 °F (at 3:30 AM)
Average temperature yesterday: 84 °F

Past Weeks' High & Low Weather Summary

 TemperatureHumidityPressure
High102 °F (Jul 30, 3:53 PM)100% (Jul 20, 1:00 AM)29.92 "Hg (Jul 20, 1:00 AM)
Low75 °F (Jul 28, 6:00 PM)34% (Jul 24, 10:30 AM)29.53 "Hg (Jul 17, 4:30 PM)
Average85 °F71%29.79 "Hg
* Reported Jul 17 3:00 PM — Aug 1 3:30 PM, Taichung, Weather by CustomWeather, © 2015

Note: Actual official high and low records may vary slightly from our data, if they occured in-between our weather recording intervals... More about our weather records

Advertising

Taichung weather history for previous 24 hours

 ConditionsComfort  
Time TempWeatherWind HumidityBarometerVisibility
3:30 PM
Sat, Aug 1
90 °FScattered clouds.12 mph55%29.83 "HgN/A
3:00 PM90 °FScattered clouds.13 mph55%29.86 "HgN/A
2:30 PM90 °FScattered clouds.15 mph52%29.86 "HgN/A
2:00 PM91 °FScattered clouds.14 mph56%29.86 "HgN/A
1:30 PM90 °FScattered clouds.15 mph55%29.86 "HgN/A
1:00 PM91 °FScattered clouds.14 mph49%29.89 "HgN/A
12:30 PM90 °FPassing clouds.14 mph59%29.89 "HgN/A
12:00 PM91 °FPassing clouds.14 mph52%29.89 "HgN/A
11:00 AM90 °FPassing clouds.12 mph55%29.89 "HgN/A
10:30 AM90 °FPassing clouds.13 mph59%29.89 "HgN/A
10:00 AM90 °FPassing clouds.12 mph55%29.89 "HgN/A
9:30 AM90 °FPassing clouds.10 mph59%29.89 "HgN/A
9:00 AM88 °FScattered clouds.12 mph62%29.89 "HgN/A
8:30 AM86 °FScattered clouds.10 mph70%29.89 "HgN/A
8:00 AM84 °FPassing clouds.12 mph74%29.89 "HgN/A
7:30 AM84 °FPassing clouds.8 mph74%29.89 "HgN/A
7:00 AM82 °FPassing clouds.6 mph79%29.89 "HgN/A
6:30 AM79 °FPassing clouds.6 mph84%29.89 "HgN/A
6:00 AM79 °FPassing clouds.5 mph84%29.89 "HgN/A
5:30 AM79 °FPassing clouds.6 mph79%29.86 "HgN/A
5:00 AM77 °FPassing clouds.5 mph83%29.86 "HgN/A
4:30 AM79 °FPassing clouds.6 mph74%29.86 "HgN/A
4:00 AM79 °FPassing clouds.6 mph74%29.86 "HgN/A
3:30 AM79 °FPassing clouds.6 mph79%29.86 "HgN/A
3:00 AM79 °FPassing clouds.5 mph79%29.86 "HgN/A
2:30 AM79 °FPassing clouds.1 mph84%29.86 "HgN/A
2:00 AM79 °FPassing clouds.2 mph84%29.86 "HgN/A
1:30 AM79 °FPassing clouds.2 mph84%29.86 "HgN/A
1:00 AM79 °FPassing clouds.1 mph79%29.86 "HgN/A
12:30 AM81 °FPassing clouds.2 mph74%29.86 "HgN/A
12:00 AM81 °FPassing clouds.6 mph79%29.86 "HgN/A
11:30 PM
Fri, Jul 31
84 °FPassing clouds.6 mph66%29.86 "HgN/A
11:00 PM82 °FPassing clouds.6 mph74%29.86 "HgN/A
10:30 PM81 °FPassing clouds.7 mph79%29.86 "HgN/A
10:00 PM81 °FPassing clouds.No wind79%29.86 "HgN/A
9:30 PM81 °FPassing clouds.1 mph79%29.86 "HgN/A
9:00 PM81 °FPassing clouds.2 mph84%29.86 "HgN/A
8:30 PM82 °FPassing clouds.3 mph79%29.86 "HgN/A
8:00 PM82 °FPassing clouds.3 mph74%29.86 "HgN/A
7:30 PM84 °FPartly cloudy.5 mph70%29.83 "HgN/A
7:00 PM86 °FPartly cloudy.7 mph62%29.83 "HgN/A
6:30 PM86 °FBroken clouds.10 mph59%29.83 "HgN/A
6:00 PM88 °FBroken clouds.10 mph59%29.83 "HgN/A
5:30 PM88 °FBroken clouds.10 mph59%29.83 "HgN/A
5:00 PM88 °FBroken clouds.12 mph55%29.83 "HgN/A
4:30 PM91 °FPartly sunny.13 mph46%29.83 "HgN/A
4:00 PM91 °FPartly sunny.15 mph49%29.83 "HgN/A
Weather by CustomWeather, © 2015

See weather overviewHow to use our weather pages